H1 CPF 2 NER 2024 7 10 9 192 01 glonass105 H2 0705202 9105 32276 2024 7 10 0 0 0 2024 7 13 23 45 0 900 1 1 0 0 0 1 H9 10 0 60501 0.00000 0 -17637441.098 -12040925.173 13979300.880 10 0 60501 900.00000 0 -18793388.624 -13102352.697 11255066.520 10 0 60501 1800.00000 0 -19782626.470 -13824824.230 8312636.355 10 0 60501 2700.00000 0 -20546646.224 -14223193.665 5209061.226 10 0 60501 3600.00000 0 -21033084.577 -14324491.282 2004507.772 10 0 60501 4500.00000 0 -21198024.086 -14166555.782 -1238902.692 10 0 60501 5400.00000 0 -21007958.347 -13796223.612 -4458293.149 10 0 60501 6300.00000 0 -20441338.805 -13267152.178 -7591244.780 10 0 60501 7200.00000 0 -19489637.833 -12637368.811 -10577002.446 10 0 60501 8100.00000 0 -18157882.774 -11966648.786 -13357648.655 10 0 60501 9000.00000 0 -16464637.590 -11313832.798 -15879223.487 10 0 60501 9900.00000 0 -14441431.739 -10734196.812 -18092768.998 10 0 60501 10800.00000 0 -12131658.829 -10276985.019 -19955278.130 10 0 60501 11700.00000 0 -9588989.560 -9983209.794 -21430529.996 10 0 60501 12600.00000 0 -6875363.676 -9883811.482 -22489795.510 10 0 60501 13500.00000 0 -4058643.057 -9998255.833 -23112399.770 10 0 60501 14400.00000 0 -1210022.192 -10333628.764 -23286130.216 10 0 60501 15300.00000 0 1598697.476 -10884267.381 -23007482.320 10 0 60501 16200.00000 0 4297857.101 -11631943.916 -22281737.543 10 0 60501 17100.00000 0 6822600.343 -12546596.044 -21122871.306 10 0 60501 18000.00000 0 9115333.500 -13587574.117 -19553291.868 10 0 60501 18900.00000 0 11127883.762 -14705353.980 -17603414.196 10 0 60501 19800.00000 0 12823265.751 -15843644.156 -15311076.166 10 0 60501 20700.00000 0 14176982.613 -16941799.207 -12720807.605 10 0 60501 21600.00000 0 15177807.337 -17937437.674 -9882965.845 10 0 60501 22500.00000 0 15828011.736 -18769153.883 -6852754.311 10 0 60501 23400.00000 0 16143033.883 -19379208.453 -3689143.421 10 0 60501 24300.00000 0 16150598.670 -19716082.885 -453715.300 10 0 60501 25200.00000 0 15889329.522 -19736789.094 2790544.376 10 0 60501 26100.00000 0 15406911.080 -19408835.072 5980482.723 10 0 60501 27000.00000 0 14757881.882 -18711762.483 9054018.916 10 0 60501 27900.00000 0 14001151.861 -17638190.302 11951361.084 10 0 60501 28800.00000 0 13197351.077 -16194319.783 14616176.029 10 0 60501 29700.00000 0 12406123.037 -14399879.071 16996688.329 10 0 60501 30600.00000 0 11683477.965 -12287509.615 19046687.020 10 0 60501 31500.00000 0 11079318.384 -9901620.184 20726420.315 10 0 60501 32400.00000 0 10635241.578 -7296756.603 22003361.377 10 0 60501 33300.00000 0 10382711.335 -4535555.483 22852831.022 10 0 60501 34200.00000 0 10341675.384 -1686367.326 23258466.206 10 0 60501 35100.00000 0 10519685.894 1179352.219 23212526.322 10 0 60501 36000.00000 0 10911559.065 3989774.926 22716032.387 10 0 60501 36900.00000 0 11499587.234 6675443.605 21778737.392 10 0 60501 37800.00000 0 12254293.774 9171913.920 20418929.135 10 0 60501 38700.00000 0 13135698.572 11422186.038 18663069.790 10 0 60501 39600.00000 0 14095040.571 13378826.589 16545279.441 10 0 60501 40500.00000 0 15076885.028 15005694.375 14106673.539 10 0 60501 41400.00000 0 16021527.095 16279199.640 11394566.841 10 0 60501 42300.00000 0 16867591.015 17189046.021 8461558.926 10 0 60501 43200.00000 0 17554716.039 17738425.636 5364518.529 10 0 60501 44100.00000 0 18026216.467 17943660.461 2163485.937 10 0 60501 45000.00000 0 18231604.148 17833306.044 -1079485.675 10 0 60501 45900.00000 0 18128867.437 17446755.916 -4301527.880 10 0 60501 46800.00000 0 17686410.584 16832405.889 -7440170.691 10 0 60501 47700.00000 0 16884571.635 16045455.649 -10434549.014 10 0 60501 48600.00000 0 15716654.371 15145440.238 -13226578.712 10 0 60501 49500.00000 0 14189430.016 14193595.207 -15762079.736 10 0 60501 50400.00000 0 12323086.448 13250166.123 -17991824.774 10 0 60501 51300.00000 0 10150625.603 12371775.453 -19872493.345 10 0 60501 52200.00000 0 7716732.637 11608957.350 -21367513.113 10 0 60501 53100.00000 0 5076162.335 11003963.959 -22447772.257 10 0 60501 54000.00000 0 2291708.329 10588935.488 -23092189.192 10 0 60501 54900.00000 0 -568162.011 10384511.209 -23288128.500 10 0 60501 55800.00000 0 -3431910.104 10398940.229 -23031654.721 10 0 60501 56700.00000 0 -6227659.146 10627730.057 -22327618.589 10 0 60501 57600.00000 0 -8885944.992 11053848.557 -21189573.305 10 0 60501 58500.00000 0 -11342371.133 11648471.697 -19639521.628 10 0 60501 59400.00000 0 -13540057.727 12372246.482 -17707497.694 10 0 60501 60300.00000 0 -15431782.763 13177016.645 -15430990.750 10 0 60501 61200.00000 0 -16981725.987 14007938.815 -12854221.163 10 0 60501 62100.00000 0 -18166742.595 14805900.055 -10027282.196 10 0 60501 63000.00000 0 -18977113.354 15510134.465 -7005163.946 10 0 60501 63900.00000 0 -19416739.760 16060927.647 -3846678.570 10 0 60501 64800.00000 0 -19502776.430 16402293.741 -613308.207 10 0 60501 65700.00000 0 -19264716.875 16484510.605 2632001.163 10 0 60501 66600.00000 0 -18742972.159 16266404.574 5826075.313 10 0 60501 67500.00000 0 -17987003.668 15717286.881 8906751.532 10 0 60501 68400.00000 0 -17053090.225 14818458.701 11814097.253 10 0 60501 69300.00000 0 -16001825.284 13564220.352 14491582.705 10 0 60501 70200.00000 0 -14895451.230 11962341.360 16887184.026 10 0 60501 71100.00000 0 -13795144.373 10033971.202 18954395.010 10 0 60501 72000.00000 0 -12758365.885 7812994.243 20653127.722 10 0 60501 72900.00000 0 -11836390.606 5344855.874 21950484.965 10 0 60501 73800.00000 0 -11072117.583 2684908.895 22821390.268 10 0 60501 74700.00000 0 -10498253.898 -103650.816 23249064.132 10 0 60501 75600.00000 0 -10135947.131 -2952173.554 23225338.386 10 0 60501 76500.00000 0 -9993922.793 -5789170.938 22750803.606 10 0 60501 77400.00000 0 -10068161.675 -8543048.890 21834787.713 10 0 60501 78300.00000 0 -10342129.464 -11144845.834 20495166.903 10 0 60501 79200.00000 0 -10787547.941 -13530863.556 18758013.064 10 0 60501 80100.00000 0 -11365674.583 -15645082.729 16657084.735 10 0 60501 81000.00000 0 -12029036.276 -17441264.181 14233171.468 10 0 60501 81900.00000 0 -12723544.053 -18884649.931 11533303.998 10 0 60501 82800.00000 0 -13390899.882 -19953194.598 8609845.218 10 0 60501 83700.00000 0 -13971194.382 -20638277.131 5519479.082 10 0 60501 84600.00000 0 -14405586.359 -20944864.335 2322116.578 10 0 60501 85500.00000 0 -14638951.471 -20891120.303 -920260.422 10 0 60502 0.00000 0 -14622388.619 -20507478.952 -4144795.119 10 0 60502 900.00000 0 -14315478.344 -19835218.793 -7288970.390 10 0 60502 1800.00000 0 -13688197.921 -18924600.693 -10291814.413 10 0 60502 2700.00000 0 -12722411.983 -17832646.211 -13095079.934 10 0 60502 3600.00000 0 -11412875.053 -16620650.235 -15644370.231 10 0 60502 4500.00000 0 -9767702.803 -15351532.071 -17890191.895 10 0 60502 5400.00000 0 -7808290.803 -14087135.978 -19788914.014 10 0 60502 6300.00000 0 -5568682.479 -12885594.178 -21303615.387 10 0 60502 7200.00000 0 -3094410.894 -11798862.797 -22404803.551 10 0 60502 8100.00000 0 -440860.778 -10870533.913 -23070991.762 10 0 60502 9000.00000 0 2328782.810 -10134015.468 -23289122.676 10 0 60502 9900.00000 0 5145915.518 -9611155.511 -23054830.245 10 0 60502 10800.00000 0 7939126.879 -9311368.784 -22372534.252 10 0 60502 11700.00000 0 10636938.211 -9231302.731 -21255364.953 10 0 60502 12600.00000 0 13170552.161 -9355057.508 -19724918.395 10 0 60502 13500.00000 0 15476499.985 -9654951.276 -17810846.222 10 0 60502 14400.00000 0 17499076.475 -10092799.059 -15550286.944 10 0 60502 15300.00000 0 19192460.831 -10621651.592 -12987148.917 10 0 60502 16200.00000 0 20522434.659 -11187920.847 -10171258.352 10 0 60502 17100.00000 0 21467624.921 -11733802.227 -7157388.646 10 0 60502 18000.00000 0 22020219.561 -12199890.418 -4004189.993 10 0 60502 18900.00000 0 22186125.764 -12527877.293 -773040.640 10 0 60502 19800.00000 0 21984564.571 -12663216.510 2473157.133 10 0 60502 20700.00000 0 21447119.515 -12557640.620 5671211.680 10 0 60502 21600.00000 0 20616280.396 -12171422.784 8758882.113 10 0 60502 22500.00000 0 19543544.765 -11475286.052 11676098.532 10 0 60502 23400.00000 0 18287158.557 -10451878.413 14366137.502 10 0 60502 24300.00000 0 16909592.458 -9096750.409 16776729.143 10 0 60502 25200.00000 0 15474861.536 -7418793.449 18861073.865 10 0 60502 26100.00000 0 14045801.889 -5440119.996 20578748.927 10 0 60502 27000.00000 0 12681419.350 -3195390.403 21896487.584 10 0 60502 27900.00000 0 11434421.689 -730614.433 22788816.399 10 0 60502 28800.00000 0 10349037.486 1898522.525 23238539.272 10 0 60502 29700.00000 0 9459212.256 4628738.949 23237059.895 10 0 60502 30600.00000 0 8787256.271 7391556.099 22784537.438 10 0 60502 31500.00000 0 8342999.265 10115917.109 21889873.423 10 0 60502 32400.00000 0 8123485.981 12730918.134 20570530.815 10 0 60502 33300.00000 0 8113223.832 15168539.050 18852189.318 10 0 60502 34200.00000 0 8284971.025 17366261.334 16768243.825 10 0 60502 35100.00000 0 8601031.069 19269465.556 14359155.699 10 0 60502 36000.00000 0 9014998.521 20833510.001 11671669.226 10 0 60502 36900.00000 0 9473882.197 22025405.095 8757908.060 10 0 60502 37800.00000 0 9920516.264 22825014.998 5674368.738 10 0 60502 38700.00000 0 10296157.705 23225737.210 2480830.253 10 0 60502 39600.00000 0 10543160.762 23234632.649 -760799.522 10 0 60502 40500.00000 0 10607615.697 22872001.416 -3987678.623 10 0 60502 41400.00000 0 10441840.618 22170422.470 -7137244.132 10 0 60502 42300.00000 0 10006621.104 21173297.731 -10148420.385 10 0 60502 43200.00000 0 9273102.893 19932961.708 -12962799.070 10 0 60502 44100.00000 0 8224257.178 18508435.861 -15525768.580 10 0 60502 45000.00000 0 6855855.902 16962921.590 -17787570.945 10 0 60502 45900.00000 0 5176914.761 15361136.668 -19704266.102 10 0 60502 46800.00000 0 3209583.689 13766606.317 -21238585.078 10 0 60502 47700.00000 0 988487.622 12239022.053 -22360655.679 10 0 60502 48600.00000 0 -1440456.910 10831778.528 -23048586.750 10 0 60502 49500.00000 0 -4021701.962 9589791.240 -23288899.595 10 0 60502 50400.00000 0 -6692137.850 8547686.330 -23076797.927 10 0 60502 51300.00000 0 -9383487.823 7728438.252 -22416270.661 10 0 60502 52200.00000 0 -12024929.546 7142512.499 -21320024.847 10 0 60502 53100.00000 0 -14545835.268 6787549.541 -19809249.201 10 0 60502 54000.00000 0 -16878517.295 6648603.504 -17913211.873 10 0 60502 54900.00000 0 -18960864.613 6698925.735 -15668699.291 10 0 60502 55800.00000 0 -20738760.548 6901260.424 -13119306.152 10 0 60502 56700.00000 0 -22168180.178 7209597.559 -10314589.743 10 0 60502 57600.00000 0 -23216879.227 7571308.867 -7309104.702 10 0 60502 58500.00000 0 -23865603.217 7929575.851 -4161337.091 10 0 60502 59400.00000 0 -24108765.803 8226006.246 -932558.975 10 0 60502 60300.00000 0 -23954567.709 8403326.925 2314373.433 10 0 60502 61200.00000 0 -23424551.523 8408037.848 5516253.541 10 0 60502 62100.00000 0 -22552611.699 8192913.162 8610764.835 10 0 60502 63000.00000 0 -21383502.400 7719242.208 11537702.708 10 0 60502 63900.00000 0 -19970907.160 6958714.299 14240152.714 10 0 60502 64800.00000 0 -18375152.925 5894866.622 16665601.564 10 0 60502 65700.00000 0 -16660665.825 4524033.328 18766958.796 10 0 60502 66600.00000 0 -14893276.638 2855755.293 20503469.179 10 0 60502 67500.00000 0 -13137489.780 912632.970 21841498.475 10 0 60502 68400.00000 0 -11453830.545 -1270371.739 22755178.016 10 0 60502 69300.00000 0 -9896381.539 -3647155.503 23226896.476 10 0 60502 70200.00000 0 -8510610.679 -6162164.715 23247630.405 10 0 60502 71100.00000 0 -7331580.460 -8752487.546 22817108.173 10 0 60502 72000.00000 0 -6382611.925 -11350260.169 21943805.131 10 0 60502 72900.00000 0 -5674457.522 -13885287.656 20644770.848 10 0 60502 73800.00000 0 -5205015.733 -16287771.352 18945292.302 10 0 60502 74700.00000 0 -4959597.788 -18491030.205 16878399.811 10 0 60502 75600.00000 0 -4911733.816 -20434103.903 14484225.261 10 0 60502 76500.00000 0 -5024483.452 -22064130.573 11809224.852 10 0 60502 77400.00000 0 -5252194.972 -23338401.015 8905281.062 10 0 60502 78300.00000 0 -5542638.401 -24226004.803 5828700.786 10 0 60502 79200.00000 0 -5839422.490 -24709000.403 2639128.585 10 0 60502 80100.00000 0 -6084593.589 -24783061.083 -601604.315 10 0 60502 81000.00000 0 -6221306.808 -24457570.093 -3830673.313 10 0 60502 81900.00000 0 -6196456.758 -23755161.480 -6985473.252 10 0 60502 82800.00000 0 -5963156.811 -22710725.859 -10004827.434 10 0 60502 83700.00000 0 -5482962.015 -21369922.771 -12830169.670 10 0 60502 84600.00000 0 -4727741.486 -19787261.717 -15406676.673 10 0 60502 85500.00000 0 -3681120.598 -18023831.917 -17684329.035 10 0 60503 0.00000 0 -2339431.371 -16144775.581 -19618880.350 10 0 60503 900.00000 0 -712128.891 -14216608.865 -21172716.892 10 0 60503 1800.00000 0 1178343.490 -12304504.582 -22315588.850 10 0 60503 2700.00000 0 3297238.872 -10469646.397 -23025202.514 10 0 60503 3600.00000 0 5598713.106 -8766767.092 -23287659.204 10 0 60503 4500.00000 0 8027504.978 -7241972.429 -23097733.273 10 0 60503 5400.00000 0 10521021.983 -5930941.473 -22458983.154 10 0 60503 6300.00000 0 13011746.385 -4857578.483 -21383692.616 10 0 60503 7200.00000 0 15429862.551 -4033172.742 -19892642.513 10 0 60503 8100.00000 0 17705996.893 -3456101.568 -18014716.510 10 0 60503 9000.00000 0 19773956.568 -3112088.924 -15786347.480 10 0 60503 9900.00000 0 21573352.556 -2975008.728 -13250814.491 10 0 60503 10800.00000 0 23051997.139 -3008198.781 -10457403.420 10 0 60503 11700.00000 0 24167974.849 -3166229.491 -7460447.169 10 0 60503 12600.00000 0 24891299.380 -3397051.992 -4318264.244 10 0 60503 13500.00000 0 25205086.298 -3644433.861 -1092016.774 10 0 60503 14400.00000 0 25106191.841 -3850578.129 2155489.060 10 0 60503 15300.00000 0 24605290.757 -3958813.282 5361035.724 10 0 60503 16200.00000 0 23726390.114 -3916238.805 8462234.986 10 0 60503 17100.00000 0 22505800.080 -3676212.744 11398751.188 10 0 60503 18000.00000 0 20990605.824 -3200574.649 14113482.175 10 0 60503 18900.00000 0 19236705.860 -2461508.707 16553674.120 10 0 60503 19800.00000 0 17306500.338 -1442967.490 18671948.085 10 0 60503 20700.00000 0 15266327.384 -141595.603 20427218.251 10 0 60503 21600.00000 0 13183755.702 1432886.033 21785484.300 10 0 60503 22500.00000 0 11124847.223 3257851.673 22720483.257 10 0 60503 23400.00000 0 9151504.257 5298490.985 23214189.015 10 0 60503 24300.00000 0 7319011.450 7509047.986 23257150.949 10 0 60503 25200.00000 0 5673874.164 9834527.183 22848666.129 10 0 60503 26100.00000 0 4252042.126 12212795.990 21996782.769 10 0 60503 27000.00000 0 3077590.785 14576996.323 20718135.654 10 0 60503 27900.00000 0 2161913.570 16858165.540 19037617.263 10 0 60503 28800.00000 0 1503456.956 18987958.361 16987891.222 10 0 60503 29700.00000 0 1088007.635 20901357.284 14608757.556 10 0 60503 30600.00000 0 889518.222 22539259.489 11946381.765 10 0 60503 31500.00000 0 871435.602 23850833.250 9052402.369 10 0 60503 32400.00000 0 988475.163 24795546.361 5982933.718 10 0 60503 33300.00000 0 1188765.639 25344782.548 2797482.951 10 0 60503 34200.00000 0 1416273.869 25482978.817 -442198.349 10 0 60503 35100.00000 0 1613407.048 25208236.524 -3673305.901 10 0 60503 36000.00000 0 1723682.632 24532380.737 -6833195.125 10 0 60503 36900.00000 0 1694353.165 23480465.379 -9860590.912 10 0 60503 37800.00000 0 1478875.114 22089744.658 -12696771.552 10 0 60503 38700.00000 0 1039117.279 20408153.474 -15286704.132 10 0 60503 39600.00000 0 347215.125 18492359.895 -17580109.558 10 0 60503 40500.00000 0 -613007.875 16405470.557 -19532436.844 10 0 60503 41400.00000 0 -1845112.821 14214484.204 -21105728.000 10 0 60503 42300.00000 0 -3339652.297 11987599.062 -22269356.919 10 0 60503 43200.00000 0 -5074329.803 9791485.746 -23000628.054 10 0 60503 44100.00000 0 -7014706.960 7688638.839 -23285223.212 10 0 60503 45000.00000 0 -9115430.842 5734917.110 -23117487.596 10 0 60503 45900.00000 0 -11321932.113 3977374.535 -22500549.054 10 0 60503 46800.00000 0 -13572524.793 2452472.305 -21446267.620 10 0 60503 47700.00000 0 -15800821.450 1184746.325 -19975015.448 10 0 60503 48600.00000 0 -17938364.034 185985.718 -18115290.509 10 0 60503 49500.00000 0 -19917361.090 -545043.373 -15903170.563 10 0 60503 50400.00000 0 -21673417.056 -1022317.310 -13381617.197 10 0 60503 51300.00000 0 -23148139.160 -1271729.924 -10599642.796 10 0 60503 52200.00000 0 -24291512.112 -1329758.136 -7611356.279 10 0 60503 53100.00000 0 -25063940.142 -1241675.285 -4474906.231 10 0 60503 54000.00000 0 -25437869.782 -1059388.577 -1251342.385 10 0 60503 54900.00000 0 -25398924.385 -838993.374 1996581.644 10 0 60503 55800.00000 0 -24946502.092 -638149.254 5205639.991 10 0 60503 56700.00000 0 -24093811.865 -513390.473 8313375.373 10 0 60503 57600.00000 0 -22867346.152 -517486.289 11259323.764 10 0 60503 58500.00000 0 -21305812.847 -696964.329 13986197.964 10 0 60503 59400.00000 0 -19458572.177 -1089902.995 16441006.172 10 0 60503 60300.00000 0 -17383645.009 -1724087.226 18576083.361 10 0 60503 61200.00000 0 -15145377.066 -2615606.108 20350015.243 10 0 60503 62100.00000 0 -12811857.615 -3767951.874 21728437.216 10 0 60503 63000.00000 0 -10452201.091 -5171658.416 22684693.406 10 0 60503 63900.00000 0 -8133805.304 -6804494.543 23200343.934 10 0 60503 64800.00000 0 -5919700.299 -8632203.923 23265511.609 10 0 60503 65700.00000 0 -3866097.522 -10609760.809 22879062.423 10 0 60503 66600.00000 0 -2020240.220 -12683089.185 22048617.337 10 0 60503 67500.00000 0 -418643.016 -14791173.883 20790395.906 10 0 60503 68400.00000 0 914207.830 -16868476.027 19128895.353 10 0 60503 69300.00000 0 1966641.171 -18847552.653 17096411.574 10 0 60503 70200.00000 0 2740043.851 -20661771.921 14732411.391 10 0 60503 71100.00000 0 3248551.341 -22248011.450 12082767.988 10 0 60503 72000.00000 0 3518200.629 -23549227.816 9198874.036 10 0 60503 72900.00000 0 3585582.199 -24516790.615 6136649.218 10 0 60503 73800.00000 0 3496048.661 -25112484.082 2955460.922 10 0 60503 74700.00000 0 3301556.052 -25310092.902 -283021.404 10 0 60503 75600.00000 0 3058229.139 -25096506.095 -3516016.417 10 0 60503 76500.00000 0 2823753.559 -24472292.708 -6680842.848 10 0 60503 77400.00000 0 2654704.924 -23451725.045 -9716129.983 10 0 60503 78300.00000 0 2603927.655 -22062248.051 -12563003.453 10 0 60503 79200.00000 0 2718074.304 -20343416.515 -15166223.580 10 0 60503 80100.00000 0 3035409.436 -18345343.856 -17475254.383 10 0 60503 81000.00000 0 3583971.149 -16126726.562 -19445242.792 10 0 60503 81900.00000 0 4380168.466 -13752525.877 -21037889.319 10 0 60503 82800.00000 0 5427874.668 -11291402.644 -22222193.483 10 0 60503 83700.00000 0 6718056.063 -8813011.357 -22975059.621 10 0 60503 84600.00000 0 8228953.391 -6385265.344 -23281751.357 10 0 60503 85500.00000 0 9926810.076 -4071686.326 -23136185.632 10 0 60504 0.00000 0 11767118.485 -1928948.293 -22541060.265 10 0 60504 900.00000 0 13696334.841 -4716.449 -21507811.528 10 0 60504 1800.00000 0 15653990.097 1664126.165 -20056402.590 10 0 60504 2700.00000 0 17575112.960 3052794.433 -18214945.008 10 0 60504 3600.00000 0 19392862.059 4149401.631 -16019160.293 10 0 60504 4500.00000 0 21041258.279 4955212.473 -13511690.958 10 0 60504 5400.00000 0 22457902.491 5484338.273 -10741273.834 10 0 60504 6300.00000 0 23586564.115 5762887.553 -7761791.327 10 0 60504 7200.00000 0 24379530.955 5827608.552 -4631219.135 10 0 60504 8100.00000 0 24799620.545 5724081.903 -1410491.277 10 0 60504 9000.00000 0 24821767.372 5504541.019 1837694.769 10 0 60504 9900.00000 0 24434118.271 5225413.780 5050108.492 10 0 60504 10800.00000 0 23638589.248 4944691.101 8164227.221 10 0 60504 11700.00000 0 22450859.970 4719235.347 11119462.103 10 0 60504 12600.00000 0 20899806.187 4602144.015 13858344.181 10 0 60504 13500.00000 0 19026394.289 4640281.519 16327646.667 10 0 60504 14400.00000 0 16882084.990 4872084.473 18479421.067 10 0 60504 15300.00000 0 14526813.761 5325733.860 20271926.869 10 0 60504 16200.00000 0 12026633.215 6017771.594 21670437.009 10 0 60504 17100.00000 0 9451116.465 6952219.873 22647904.125 10 0 60504 18000.00000 0 6870630.034 8120240.308 23185475.514 10 0 60504 18900.00000 0 4353589.792 9500346.966 23272847.903 10 0 60504 19800.00000 0 1963813.518 11059164.271 22908456.196 10 0 60504 20700.00000 0 -241920.742 12752697.897 22099493.566 10 0 60504 21600.00000 0 -2216010.412 14528065.584 20861763.307 10 0 60504 22500.00000 0 -3921771.077 16325615.746 19219365.865 10 0 60504 23400.00000 0 -5334715.430 18081345.687 17204227.456 10 0 60504 24300.00000 0 -6443317.161 19729518.946 14855479.381 10 0 60504 25200.00000 0 -7249229.806 21205372.972 12218699.910 10 0 60504 26100.00000 0 -7766953.112 22447804.548 9345033.056 10 0 60504 27000.00000 0 -8022962.414 23401921.208 6290200.884 10 0 60504 27900.00000 0 -8054338.722 24021352.328 3113427.999 10 0 60504 28800.00000 0 -7906957.961 24270223.415 -123701.347 10 0 60504 29700.00000 0 -7633316.155 24124710.988 -3358431.797 10 0 60504 30600.00000 0 -7290082.522 23574112.790 -6528048.336 10 0 60504 31500.00000 0 -6935483.775 22621388.181 -9571087.444 10 0 60504 32400.00000 0 -6626630.050 21283145.508 -12428524.668 10 0 60504 33300.00000 0 -6416895.267 19589076.286 -15044915.869 10 0 60504 34200.00000 0 -6353462.527 17580858.952 -17369470.177 10 0 60504 35100.00000 0 -6475138.272 15310577.023 -19357034.126 10 0 60504 36000.00000 0 -6810527.724 12838716.583 -20968968.120 10 0 60504 36900.00000 0 -7376649.147 10231825.546 -22173898.390 10 0 60504 37800.00000 0 -8178046.160 7559931.110 -22948329.983 10 0 60504 38700.00000 0 -9206436.688 4893821.894 -23277108.872 10 0 60504 39600.00000 0 -10440914.731 2302306.971 -23153723.976 10 0 60504 40500.00000 0 -11848698.107 -150434.945 -22580442.855 10 0 60504 41400.00000 0 -13386392.441 -2407306.477 -21568277.781 10 0 60504 42300.00000 0 -15001719.925 -4420441.105 -20136782.057 10 0 60504 43200.00000 0 -16635641.667 -6152961.955 -18313679.630 10 0 60504 44100.00000 0 -18224785.578 -7580276.729 -16134334.206 10 0 60504 45000.00000 0 -19704078.404 -8690854.809 -13641067.375 10 0 60504 45900.00000 0 -21009471.462 -9486454.319 -10882338.309 10 0 60504 46800.00000 0 -22080645.119 -9981790.008 -7911800.608 10 0 60504 47700.00000 0 -22863577.490 -10203656.543 -4787254.648 10 0 60504 48600.00000 0 -23312868.194 -10189545.031 -1569516.184 10 0 60504 49500.00000 0 -23393718.142 -9985812.246 1678776.086 10 0 60504 50400.00000 0 -23083480.798 -9645481.253 4894389.729 10 0 60504 51300.00000 0 -22372718.608 -9225767.960 8014739.470 10 0 60504 52200.00000 0 -21265719.373 -8785439.777 10979114.431 10 0 60504 53100.00000 0 -19780450.474 -8382119.689 13729866.663 10 0 60504 54000.00000 0 -17947952.828 -8069651.110 16213537.038 10 0 60504 54900.00000 0 -15811200.236 -7895636.013 18381896.038 10 0 60504 55800.00000 0 -13423472.397 -7899251.049 20192879.076 10 0 60504 56700.00000 0 -10846310.147 -8109434.205 21611398.424 10 0 60504 57600.00000 0 -8147138.761 -8543518.475 22610016.608 10 0 60504 58500.00000 0 -5396658.696 -9206369.833 23169469.064 10 0 60504 59400.00000 0 -2666112.359 -10090065.387 23279026.969 10 0 60504 60300.00000 0 -24540.131 -11174124.801 22936694.285 10 0 60504 61200.00000 0 2463861.086 -12426284.893 22149236.196 10 0 60504 62100.00000 0 4742168.282 -13803784.669 20932039.206 10 0 60504 63000.00000 0 6762852.239 -15255106.954 19308806.182 10 0 60504 63900.00000 0 8489500.503 -16722103.744 17311092.561 10 0 60504 64800.00000 0 9898073.590 -18142416.649 14977692.758 10 0 60504 65700.00000 0 10977643.985 -19452091.463 12353888.458 10 0 60504 66600.00000 0 11730588.801 -20588277.882 9490573.056 10 0 60504 67500.00000 0 12172229.714 -21491901.686 6443268.753 10 0 60504 68400.00000 0 12329936.534 -22110197.831 3271054.883 10 0 60504 69300.00000 0 12241733.127 -22398998.429 35427.814 10 0 60504 70200.00000 0 11954464.980 -22324679.775 -3200885.880 10 0 60504 71100.00000 0 11521606.045 -21865686.536 -6375140.319 10 0 60504 72000.00000 0 11000797.426 -21013568.803 -9425782.054 10 0 60504 72900.00000 0 10451221.743 -19773487.883 -12293639.388 10 0 60504 73800.00000 0 9930923.830 -18164168.780 -14923066.475 10 0 60504 74700.00000 0 9494190.672 -16217300.282 -17263020.174 10 0 60504 75600.00000 0 9189101.026 -13976406.583 -19268049.054 10 0 60504 76500.00000 0 9055348.084 -11495236.195 -20899175.581 10 0 60504 77400.00000 0 9122427.183 -8835734.054 -22124654.556 10 0 60504 78300.00000 0 9408265.386 -6065679.949 -22920593.233 10 0 60504 79200.00000 0 9918351.343 -3256090.283 -23271421.031 10 0 60504 80100.00000 0 10645403.075 -478490.145 -23170199.548 10 0 60504 81000.00000 0 11569588.857 2197831.895 -22618766.460 10 0 60504 81900.00000 0 12659293.262 4708472.899 -21627709.868 10 0 60504 82800.00000 0 13872397.553 6996358.894 -20216172.816 10 0 60504 83700.00000 0 15158021.838 9013881.139 -18411490.857 10 0 60504 84600.00000 0 16458656.779 10724636.473 -16248668.765 10 0 60504 85500.00000 0 17712595.827 12104699.240 -13769705.685 99